Time,TemperatureF,DewpointF,PressureIn,WindDirection,WindDirectionDegrees,WindSpeedMPH,WindSpeedGustMPH,Humidity,HourlyPrecipIn,Conditions,Clouds,dailyrainin,SoftwareType,DateUTC
2013-02-03 05:55:00,15.0,12.6,30.07,SSW,199,4.0,4.0,90,0.00,,,0.00,Wunderground v.1.15,2013-02-03 11:55:00,
2013-02-03 06:00:00,15.0,12.6,30.08,SW,215,4.0,4.0,90,0.00,,,0.00,Wunderground v.1.15,2013-02-03 12:00:00,
2013-02-03 06:05:00,15.1,12.7,30.07,SSW,213,4.0,5.0,90,0.00,,,0.00,Wunderground v.1.15,2013-02-03 12:05:00,
2013-02-03 06:10:00,15.3,12.9,30.07,SSW,197,5.0,5.0,90,0.00,,,0.00,Wunderground v.1.15,2013-02-03 12:10:00,
2013-02-03 06:15:00,15.4,13.0,30.07,SSW,213,5.0,6.0,90,0.00,,,0.00,Wunderground v.1.15,2013-02-03 12:15:00,
2013-02-03 06:20:00,15.5,13.1,30.07,SW,219,5.0,6.0,90,0.00,,,0.00,Wunderground v.1.15,2013-02-03 12:20:00,
2013-02-03 06:25:00,15.6,13.4,30.07,SW,218,5.0,6.0,91,0.00,,,0.00,Wunderground v.1.15,2013-02-03 12:25:00,
2013-02-03 06:30:00,15.7,13.5,30.07,SW,214,4.0,4.0,91,0.00,,,0.00,Wunderground v.1.15,2013-02-03 12:30:00,
2013-02-03 06:35:00,15.8,13.4,30.07,SW,219,4.0,5.0,90,0.00,,,0.00,Wunderground v.1.15,2013-02-03 12:35:00,
2013-02-03 06:40:00,15.9,13.7,30.07,SSW,205,4.0,5.0,91,0.00,,,0.00,Wunderground v.1.15,2013-02-03 12:40:00,
2013-02-03 06:45:00,15.9,13.7,30.07,SSW,213,5.0,5.0,91,0.00,,,0.00,Wunderground v.1.15,2013-02-03 12:45:00,
2013-02-03 06:50:00,15.9,13.7,30.07,SW,215,5.0,5.0,91,0.00,,,0.00,Wunderground v.1.15,2013-02-03 12:50:00,
2013-02-03 06:55:00,16.0,13.8,30.07,SW,221,5.0,6.0,91,0.00,,,0.00,Wunderground v.1.15,2013-02-03 12:55:00,
2013-02-03 07:00:00,16.0,13.8,30.07,SW,215,5.0,5.0,91,0.00,,,0.00,Wunderground v.1.15,2013-02-03 13:00:00,
2013-02-03 07:05:00,16.1,14.2,30.07,SSW,211,5.0,5.0,92,0.00,,,0.00,Wunderground v.1.15,2013-02-03 13:05:00,
2013-02-03 07:10:00,16.2,14.3,30.07,SSW,213,5.0,5.0,92,0.00,,,0.00,Wunderground v.1.15,2013-02-03 13:10:00,
2013-02-03 07:15:00,16.3,14.4,30.07,SW,222,4.0,5.0,92,0.00,,,0.00,Wunderground v.1.15,2013-02-03 13:15:00,
2013-02-03 07:20:00,16.4,14.7,30.07,SW,227,4.0,4.0,93,0.00,,,0.00,Wunderground v.1.15,2013-02-03 13:20:00,
2013-02-03 07:25:00,16.5,14.8,30.07,SW,223,4.0,4.0,93,0.00,,,0.00,Wunderground v.1.15,2013-02-03 13:25:00,
2013-02-03 07:30:00,16.8,15.1,30.07,WSW,238,4.0,5.0,93,0.00,,,0.00,Wunderground v.1.15,2013-02-03 13:30:00,
2013-02-03 07:40:00,17.1,15.7,30.07,SW,233,5.0,5.0,94,0.00,,,0.00,Wunderground v.1.15,2013-02-03 13:40:00,
2013-02-03 07:45:00,17.2,15.8,30.07,SW,233,5.0,5.0,94,0.00,,,0.00,Wunderground v.1.15,2013-02-03 13:45:00,
2013-02-03 07:50:00,17.3,15.9,30.07,SW,223,4.0,4.0,94,0.00,,,0.00,Wunderground v.1.15,2013-02-03 13:50:00,
2013-02-03 07:55:00,17.5,16.1,30.06,SW,234,4.0,7.0,94,0.00,,,0.00,Wunderground v.1.15,2013-02-03 13:55:00,
2013-02-03 08:00:00,17.6,16.2,30.06,WSW,237,3.0,4.0,94,0.00,,,0.00,Wunderground v.1.15,2013-02-03 14:00:00,
2013-02-03 08:05:00,17.7,16.3,30.07,SW,234,3.0,4.0,94,0.00,,,0.00,Wunderground v.1.15,2013-02-03 14:05:00,
2013-02-03 08:10:00,17.8,16.4,30.07,WSW,240,3.0,4.0,94,0.00,,,0.00,Wunderground v.1.15,2013-02-03 14:10:00,
2013-02-03 08:15:00,17.9,16.5,30.07,WSW,240,3.0,4.0,94,0.00,,,0.00,Wunderground v.1.15,2013-02-03 14:15:00,
2013-02-03 08:20:00,18.0,16.6,30.07,WSW,241,3.0,3.0,94,0.00,,,0.00,Wunderground v.1.15,2013-02-03 14:20:00,
2013-02-03 08:25:00,18.2,16.8,30.07,WSW,243,3.0,3.0,94,0.00,,,0.00,Wunderground v.1.15,2013-02-03 14:25:00,
2013-02-03 08:30:00,18.3,16.9,30.07,WSW,243,3.0,3.0,94,0.00,,,0.00,Wunderground v.1.15,2013-02-03 14:30:00,
2013-02-03 08:35:00,18.4,17.0,30.07,WSW,244,4.0,5.0,94,0.00,,,0.00,Wunderground v.1.15,2013-02-03 14:35:00,
2013-02-03 08:40:00,18.6,17.2,30.07,WSW,248,4.0,6.0,94,0.00,,,0.00,Wunderground v.1.15,2013-02-03 14:40:00,
2013-02-03 08:50:00,18.9,17.5,30.07,WSW,253,5.0,6.0,94,0.00,,,0.00,Wunderground v.1.15,2013-02-03 14:50:00,
2013-02-03 08:55:00,19.1,17.7,30.07,West,267,6.0,6.0,94,0.00,,,0.00,Wunderground v.1.15,2013-02-03 14:55:00,
2013-02-03 09:00:00,19.3,17.9,30.07,WSW,250,6.0,7.0,94,0.00,,,0.00,Wunderground v.1.15,2013-02-03 15:00:00,
2013-02-03 09:10:00,19.6,18.2,30.07,WSW,250,6.0,7.0,94,0.00,,,0.00,Wunderground v.1.15,2013-02-03 15:10:00,
2013-02-03 09:15:00,19.8,18.4,30.07,WSW,257,6.0,8.0,94,0.00,,,0.00,Wunderground v.1.15,2013-02-03 15:15:00,
2013-02-03 09:20:00,19.8,18.4,30.07,WSW,250,7.0,7.0,94,0.00,,,0.00,Wunderground v.1.15,2013-02-03 15:20:00,
2013-02-03 09:25:00,20.1,18.7,30.07,West,259,6.0,7.0,94,0.00,,,0.00,Wunderground v.1.15,2013-02-03 15:25:00,
2013-02-03 09:30:00,20.2,18.8,30.07,WSW,255,6.0,6.0,94,0.00,,,0.00,Wunderground v.1.15,2013-02-03 15:30:00,
2013-02-03 09:35:00,20.3,18.8,30.06,West,262,6.0,8.0,94,0.00,,,0.00,Wunderground v.1.15,2013-02-03 15:35:00,
2013-02-03 09:40:00,20.4,18.9,30.07,WSW,251,6.0,8.0,94,0.00,,,0.00,Wunderground v.1.15,2013-02-03 15:40:00,
2013-02-03 09:45:00,20.6,18.9,30.07,West,269,6.0,8.0,93,0.00,,,0.00,Wunderground v.1.15,2013-02-03 15:45:00,
2013-02-03 09:50:00,20.9,19.2,30.07,West,265,7.0,7.0,93,0.00,,,0.00,Wunderground v.1.15,2013-02-03 15:50:00,
2013-02-03 09:55:00,21.2,19.5,30.07,West,270,6.0,8.0,93,0.00,,,0.00,Wunderground v.1.15,2013-02-03 15:55:00,
2013-02-03 10:00:00,21.3,19.6,30.07,West,277,7.0,7.0,93,0.00,,,0.00,Wunderground v.1.15,2013-02-03 16:00:00,
2013-02-03 10:05:00,21.6,19.9,30.07,West,271,7.0,8.0,93,0.00,,,0.00,Wunderground v.1.15,2013-02-03 16:05:00,
2013-02-03 10:10:00,21.8,19.8,30.08,WNW,284,7.0,8.0,92,0.00,,,0.00,Wunderground v.1.15,2013-02-03 16:10:00,
2013-02-03 10:15:00,22.0,20.0,30.08,West,281,8.0,8.0,92,0.00,,,0.00,Wunderground v.1.15,2013-02-03 16:15:00,
2013-02-03 10:20:00,22.2,20.2,30.08,West,277,8.0,8.0,92,0.00,,,0.00,Wunderground v.1.15,2013-02-03 16:20:00,
2013-02-03 10:25:00,22.3,20.1,30.07,WNW,284,9.0,9.0,91,0.00,,,0.00,Wunderground v.1.15,2013-02-03 16:25:00,
2013-02-03 10:30:00,22.5,20.3,30.08,WNW,292,10.0,10.0,91,0.00,,,0.00,Wunderground v.1.15,2013-02-03 16:30:00,
2013-02-03 10:35:00,22.8,20.3,30.08,WNW,302,11.0,11.0,90,0.00,,,0.00,Wunderground v.1.15,2013-02-03 16:35:00,
2013-02-03 10:40:00,22.9,20.1,30.08,WNW,301,12.0,14.0,89,0.00,,,0.00,Wunderground v.1.15,2013-02-03 16:40:00,
2013-02-03 10:45:00,22.8,19.8,30.08,WNW,294,13.0,15.0,88,0.00,,,0.00,Wunderground v.1.15,2013-02-03 16:45:00,
2013-02-03 10:50:00,22.9,19.9,30.08,WNW,297,14.0,14.0,88,0.00,,,0.00,Wunderground v.1.15,2013-02-03 16:50:00,
2013-02-03 10:55:00,22.8,19.8,30.08,NW,312,15.0,16.0,88,0.00,,,0.00,Wunderground v.1.15,2013-02-03 16:55:00,
2013-02-03 11:00:00,22.9,19.6,30.08,WNW,302,15.0,19.0,87,0.00,,,0.00,Wunderground v.1.15,2013-02-03 17:00:00,
2013-02-03 11:05:00,22.8,19.8,30.08,NW,304,15.0,19.0,88,0.00,,,0.00,Wunderground v.1.15,2013-02-03 17:05:00,
2013-02-03 11:10:00,22.7,19.4,30.08,NW,308,16.0,16.0,87,0.00,,,0.00,Wunderground v.1.15,2013-02-03 17:10:00,
2013-02-03 11:15:00,22.6,19.3,30.08,NW,310,15.0,16.0,87,0.00,,,0.00,Wunderground v.1.15,2013-02-03 17:15:00,
2013-02-03 11:20:00,22.7,19.4,30.08,WNW,298,14.0,14.0,87,0.00,,,0.00,Wunderground v.1.15,2013-02-03 17:20:00,
2013-02-03 11:25:00,23.0,19.4,30.09,WNW,290,13.0,17.0,86,0.00,,,0.00,Wunderground v.1.15,2013-02-03 17:25:00,
2013-02-03 11:30:00,23.1,19.8,30.09,NW,309,13.0,14.0,87,0.00,,,0.00,Wunderground v.1.15,2013-02-03 17:30:00,
2013-02-03 11:35:00,23.1,20.1,30.10,NW,310,15.0,15.0,88,0.00,,,0.00,Wunderground v.1.15,2013-02-03 17:35:00,
2013-02-03 11:40:00,23.3,20.3,30.10,WNW,300,15.0,15.0,88,0.00,,,0.00,Wunderground v.1.15,2013-02-03 17:40:00,
2013-02-03 11:45:00,23.6,20.3,30.10,WNW,300,13.0,15.0,87,0.00,,,0.00,Wunderground v.1.15,2013-02-03 17:45:00,
2013-02-03 11:50:00,23.6,20.0,30.09,NW,305,14.0,16.0,86,0.00,,,0.00,Wunderground v.1.15,2013-02-03 17:50:00,
2013-02-03 11:55:00,23.3,19.7,30.10,WNW,294,16.0,18.0,86,0.00,,,0.00,Wunderground v.1.15,2013-02-03 17:55:00,
2013-02-03 12:00:00,23.4,19.8,30.10,WNW,290,17.0,17.0,86,0.00,,,0.00,Wunderground v.1.15,2013-02-03 18:00:00,
2013-02-03 12:05:00,23.5,20.2,30.10,WNW,298,16.0,17.0,87,0.00,,,0.00,Wunderground v.1.15,2013-02-03 18:05:00,
2013-02-03 12:10:00,23.5,20.2,30.10,NW,307,16.0,16.0,87,0.00,,,0.00,Wunderground v.1.15,2013-02-03 18:10:00,
2013-02-03 12:15:00,23.6,20.0,30.10,NW,317,15.0,16.0,86,0.00,,,0.00,Wunderground v.1.15,2013-02-03 18:15:00,
2013-02-03 12:20:00,23.4,19.6,30.10,WNW,303,15.0,16.0,85,0.00,,,0.00,Wunderground v.1.15,2013-02-03 18:20:00,
2013-02-03 12:25:00,23.3,19.7,30.10,NW,304,17.0,20.0,86,0.00,,,0.00,Wunderground v.1.15,2013-02-03 18:25:00,
2013-02-03 12:30:00,23.1,19.0,30.10,WNW,301,16.0,19.0,84,0.00,,,0.00,Wunderground v.1.15,2013-02-03 18:30:00,
2013-02-03 12:35:00,22.9,19.1,30.10,NW,305,16.0,19.0,85,0.00,,,0.00,Wunderground v.1.15,2013-02-03 18:35:00,
2013-02-03 12:40:00,23.0,19.4,30.10,NW,304,16.0,16.0,86,0.00,,,0.00,Wunderground v.1.15,2013-02-03 18:40:00,
2013-02-03 12:45:00,23.0,19.7,30.10,NW,316,15.0,16.0,87,0.00,,,0.00,Wunderground v.1.15,2013-02-03 18:45:00,
2013-02-03 12:50:00,22.9,19.9,30.10,NW,315,15.0,15.0,88,0.00,,,0.00,Wunderground v.1.15,2013-02-03 18:50:00,
2013-02-03 12:55:00,22.9,19.6,30.10,NW,307,16.0,20.0,87,0.00,,,0.00,Wunderground v.1.15,2013-02-03 18:55:00,
2013-02-03 13:00:00,23.5,19.7,30.11,NW,306,18.0,18.0,85,0.00,,,0.00,Wunderground v.1.15,2013-02-03 19:00:00,
2013-02-03 13:10:00,23.7,19.0,30.11,WNW,302,17.0,17.0,82,0.00,,,0.00,Wunderground v.1.15,2013-02-03 19:10:00,
2013-02-03 13:20:00,23.9,18.9,30.11,NW,305,16.0,20.0,81,0.00,,,0.00,Wunderground v.1.15,2013-02-03 19:20:00,
2013-02-03 13:25:00,24.0,19.3,30.11,NW,306,16.0,20.0,82,0.00,,,0.00,Wunderground v.1.15,2013-02-03 19:25:00,
2013-02-03 13:30:00,24.2,19.8,30.11,WNW,290,16.0,19.0,83,0.00,,,0.00,Wunderground v.1.15,2013-02-03 19:30:00,
2013-02-03 13:35:00,24.5,20.1,30.12,NW,308,15.0,19.0,83,0.00,,,0.00,Wunderground v.1.15,2013-02-03 19:35:00,
2013-02-03 13:40:00,24.6,19.9,30.12,WNW,300,16.0,16.0,82,0.00,,,0.00,Wunderground v.1.15,2013-02-03 19:40:00,
2013-02-03 13:45:00,24.7,20.0,30.12,WNW,296,16.0,16.0,82,0.00,,,0.00,Wunderground v.1.15,2013-02-03 19:45:00,
2013-02-03 13:50:00,24.7,20.0,30.11,WNW,286,15.0,15.0,82,0.00,,,0.00,Wunderground v.1.15,2013-02-03 19:50:00,
2013-02-03 13:55:00,24.7,20.0,30.11,WNW,282,14.0,15.0,82,0.00,,,0.00,Wunderground v.1.15,2013-02-03 19:55:00,
2013-02-03 14:00:00,25.0,20.6,30.12,WNW,300,13.0,14.0,83,0.00,,,0.00,Wunderground v.1.15,2013-02-03 20:00:00,
2013-02-03 14:05:00,25.3,21.1,30.12,WNW,288,13.0,14.0,84,0.00,,,0.00,Wunderground v.1.15,2013-02-03 20:05:00,
2013-02-03 14:10:00,25.4,21.0,30.12,WNW,282,13.0,20.0,83,0.00,,,0.00,Wunderground v.1.15,2013-02-03 20:10:00,
2013-02-03 14:15:00,25.6,21.2,30.13,WNW,283,14.0,20.0,83,0.00,,,0.00,Wunderground v.1.15,2013-02-03 20:15:00,
2013-02-03 14:20:00,25.5,20.5,30.13,WNW,293,15.0,15.0,81,0.00,,,0.00,Wunderground v.1.15,2013-02-03 20:20:00,
2013-02-03 14:25:00,25.4,20.4,30.13,West,273,14.0,15.0,81,0.00,,,0.00,Wunderground v.1.15,2013-02-03 20:25:00,
2013-02-03 14:30:00,25.2,20.2,30.14,West,278,14.0,14.0,81,0.00,,,0.00,Wunderground v.1.15,2013-02-03 20:30:00,
2013-02-03 14:35:00,25.1,20.1,30.14,WNW,294,14.0,16.0,81,0.00,,,0.00,Wunderground v.1.15,2013-02-03 20:35:00,
2013-02-03 14:40:00,25.1,19.8,30.14,West,279,14.0,14.0,80,0.00,,,0.00,Wunderground v.1.15,2013-02-03 20:40:00,
2013-02-03 14:45:00,25.3,19.7,30.14,West,277,14.0,14.0,79,0.00,,,0.00,Wunderground v.1.15,2013-02-03 20:45:00,
2013-02-03 14:50:00,25.4,19.8,30.14,West,279,13.0,13.0,79,0.00,,,0.00,Wunderground v.1.15,2013-02-03 20:50:00,
2013-02-03 14:55:00,25.3,19.7,30.15,WNW,290,13.0,15.0,79,0.00,,,0.00,Wunderground v.1.15,2013-02-03 20:55:00,
2013-02-03 15:00:00,25.4,19.5,30.14,West,275,13.0,14.0,78,0.00,,,0.00,Wunderground v.1.15,2013-02-03 21:00:00,
2013-02-03 15:05:00,25.4,19.8,30.14,West,269,12.0,14.0,79,0.00,,,0.00,Wunderground v.1.15,2013-02-03 21:05:00,
2013-02-03 15:10:00,25.3,20.0,30.14,WNW,284,11.0,11.0,80,0.00,,,0.00,Wunderground v.1.15,2013-02-03 21:10:00,
2013-02-03 15:15:00,25.2,19.0,30.15,WNW,292,12.0,12.0,77,0.00,,,0.00,Wunderground v.1.15,2013-02-03 21:15:00,
2013-02-03 15:20:00,25.2,18.7,30.15,WNW,294,12.0,15.0,76,0.00,,,0.00,Wunderground v.1.15,2013-02-03 21:20:00,
2013-02-03 15:25:00,25.2,19.0,30.15,West,278,12.0,15.0,77,0.00,,,0.00,Wunderground v.1.15,2013-02-03 21:25:00,
2013-02-03 15:30:00,25.2,18.7,30.15,WNW,288,12.0,14.0,76,0.00,,,0.00,Wunderground v.1.15,2013-02-03 21:30:00,
2013-02-03 15:35:00,25.1,18.9,30.15,WNW,282,11.0,14.0,77,0.00,,,0.00,Wunderground v.1.15,2013-02-03 21:35:00,
2013-02-03 15:40:00,25.1,18.3,30.15,WNW,292,12.0,12.0,75,0.00,,,0.00,Wunderground v.1.15,2013-02-03 21:40:00,
2013-02-03 15:45:00,25.0,18.2,30.15,NW,306,11.0,12.0,75,0.00,,,0.00,Wunderground v.1.15,2013-02-03 21:45:00,
2013-02-03 15:50:00,24.9,18.4,30.15,WNW,295,10.0,10.0,76,0.00,,,0.00,Wunderground v.1.15,2013-02-03 21:50:00,
2013-02-03 16:00:00,24.9,18.4,30.15,West,275,9.0,9.0,76,0.00,,,0.00,Wunderground v.1.15,2013-02-03 22:00:00,
2013-02-03 16:05:00,24.8,18.3,30.15,WNW,290,9.0,9.0,76,0.00,,,0.00,Wunderground v.1.15,2013-02-03 22:05:00,
2013-02-03 16:10:00,24.9,18.7,30.15,West,275,8.0,8.0,77,0.00,,,0.00,Wunderground v.1.15,2013-02-03 22:10:00,
2013-02-03 16:15:00,24.9,18.7,30.15,West,275,7.0,8.0,77,0.00,,,0.00,Wunderground v.1.15,2013-02-03 22:15:00,
2013-02-03 16:20:00,24.9,18.4,30.15,West,271,8.0,9.0,76,0.00,,,0.00,Wunderground v.1.15,2013-02-03 22:20:00,
2013-02-03 16:25:00,25.0,18.8,30.15,West,273,8.0,9.0,77,0.00,,,0.00,Wunderground v.1.15,2013-02-03 22:25:00,
2013-02-03 16:30:00,25.3,18.5,30.14,West,273,9.0,9.0,75,0.00,,,0.00,Wunderground v.1.15,2013-02-03 22:30:00,
2013-02-03 16:35:00,25.5,19.0,30.14,West,278,9.0,9.0,76,0.00,,,0.00,Wunderground v.1.15,2013-02-03 22:35:00,
2013-02-03 16:40:00,25.5,18.7,30.14,West,275,9.0,9.0,75,0.00,,,0.00,Wunderground v.1.15,2013-02-03 22:40:00,
2013-02-03 16:45:00,25.4,18.3,30.14,West,275,9.0,9.0,74,0.00,,,0.00,Wunderground v.1.15,2013-02-03 22:45:00,
2013-02-03 16:50:00,25.3,18.2,30.14,West,280,8.0,8.0,74,0.00,,,0.00,Wunderground v.1.15,2013-02-03 22:50:00,
2013-02-03 16:55:00,24.9,18.1,30.14,West,278,7.0,14.0,75,0.00,,,0.00,Wunderground v.1.15,2013-02-03 22:55:00,
2013-02-03 17:00:00,24.6,18.1,30.14,West,276,6.0,6.0,76,0.00,,,0.00,Wunderground v.1.15,2013-02-03 23:00:00,
2013-02-03 17:05:00,24.4,18.5,30.14,West,271,5.0,6.0,78,0.00,,,0.00,Wunderground v.1.15,2013-02-03 23:05:00,
2013-02-03 17:10:00,24.3,18.7,30.14,West,267,4.0,4.0,79,0.00,,,0.00,Wunderground v.1.15,2013-02-03 23:10:00,
2013-02-03 17:15:00,24.3,19.0,30.14,WSW,255,4.0,6.0,80,0.00,,,0.00,Wunderground v.1.15,2013-02-03 23:15:00,
2013-02-03 17:20:00,24.3,19.0,30.14,WSW,258,4.0,4.0,80,0.00,,,0.00,Wunderground v.1.15,2013-02-03 23:20:00,
2013-02-03 17:25:00,24.4,18.8,30.14,WSW,252,5.0,7.0,79,0.00,,,0.00,Wunderground v.1.15,2013-02-03 23:25:00,
2013-02-03 17:30:00,24.3,18.4,30.14,West,260,6.0,6.0,78,0.00,,,0.00,Wunderground v.1.15,2013-02-03 23:30:00,
2013-02-03 17:35:00,24.0,18.1,30.14,West,269,5.0,6.0,78,0.00,,,0.00,Wunderground v.1.15,2013-02-03 23:35:00,
2013-02-03 17:40:00,23.8,17.9,30.14,West,264,5.0,5.0,78,0.00,,,0.00,Wunderground v.1.15,2013-02-03 23:40:00,
2013-02-03 17:45:00,23.4,17.3,30.14,WSW,257,4.0,5.0,77,0.00,,,0.00,Wunderground v.1.15,2013-02-03 23:45:00,
2013-02-03 17:50:00,23.0,17.2,30.14,WSW,248,4.0,4.0,78,0.00,,,0.00,Wunderground v.1.15,2013-02-03 23:50:00,
2013-02-03 17:55:00,22.5,16.7,30.14,SW,233,4.0,12.0,78,0.00,,,0.00,Wunderground v.1.15,2013-02-03 23:55:00,
2013-02-03 18:00:00,22.2,17.3,30.14,SW,233,4.0,4.0,81,0.00,,,0.00,Wunderground v.1.15,2013-02-04 00:00:00,
2013-02-03 18:05:00,22.2,17.5,30.14,SW,233,3.0,4.0,82,0.00,,,0.00,Wunderground v.1.15,2013-02-04 00:05:00,
2013-02-03 18:10:00,22.3,17.9,30.14,SW,232,2.0,2.0,83,0.00,,,0.00,Wunderground v.1.15,2013-02-04 00:10:00,
2013-02-03 18:15:00,22.4,18.0,30.14,SW,232,2.0,2.0,83,0.00,,,0.00,Wunderground v.1.15,2013-02-04 00:15:00,
2013-02-03 18:25:00,22.5,18.4,30.14,SW,226,2.0,2.0,84,0.00,,,0.00,Wunderground v.1.15,2013-02-04 00:25:00,
2013-02-03 18:30:00,22.5,18.4,30.14,SW,226,2.0,2.0,84,0.00,,,0.00,Wunderground v.1.15,2013-02-04 00:30:00,
2013-02-03 18:35:00,22.7,18.6,30.14,SW,226,2.0,3.0,84,0.00,,,0.00,Wunderground v.1.15,2013-02-04 00:35:00,
2013-02-03 18:40:00,22.9,18.5,30.14,SW,226,2.0,2.0,83,0.00,,,0.00,Wunderground v.1.15,2013-02-04 00:40:00,
2013-02-03 18:45:00,23.1,18.7,30.14,SW,226,2.0,4.0,83,0.00,,,0.00,Wunderground v.1.15,2013-02-04 00:45:00,
2013-02-03 18:50:00,23.2,18.8,30.14,SW,225,2.0,3.0,83,0.00,,,0.00,Wunderground v.1.15,2013-02-04 00:50:00,
2013-02-03 18:55:00,23.4,19.3,30.14,SSW,212,3.0,5.0,84,0.00,,,0.00,Wunderground v.1.15,2013-02-04 00:55:00,
2013-02-03 19:00:00,23.5,19.4,30.14,SSW,211,3.0,3.0,84,0.00,,,0.00,Wunderground v.1.15,2013-02-04 01:00:00,
2013-02-03 19:10:00,23.7,19.3,30.14,SSW,205,3.0,4.0,83,0.00,,,0.00,Wunderground v.1.15,2013-02-04 01:10:00,
2013-02-03 19:15:00,23.6,19.5,30.14,SSW,205,4.0,4.0,84,0.00,,,0.00,Wunderground v.1.15,2013-02-04 01:15:00,
2013-02-03 19:20:00,23.6,19.8,30.14,SSW,202,4.0,4.0,85,0.00,,,0.00,Wunderground v.1.15,2013-02-04 01:20:00,
2013-02-03 19:25:00,23.6,19.8,30.14,SSW,207,3.0,4.0,85,0.00,,,0.00,Wunderground v.1.15,2013-02-04 01:25:00,
2013-02-03 19:30:00,23.6,20.0,30.14,SSW,209,3.0,3.0,86,0.00,,,0.00,Wunderground v.1.15,2013-02-04 01:30:00,
2013-02-03 19:35:00,23.7,19.9,30.13,SSW,213,3.0,4.0,85,0.00,,,0.00,Wunderground v.1.15,2013-02-04 01:35:00,
2013-02-03 19:40:00,23.9,19.8,30.14,SW,219,4.0,5.0,84,0.00,,,0.00,Wunderground v.1.15,2013-02-04 01:40:00,
2013-02-03 19:45:00,24.0,19.9,30.14,SW,221,4.0,5.0,84,0.00,,,0.00,Wunderground v.1.15,2013-02-04 01:45:00,
2013-02-03 19:50:00,24.0,20.1,30.14,SW,223,4.0,4.0,85,0.00,,,0.00,Wunderground v.1.15,2013-02-04 01:50:00,
2013-02-03 19:55:00,24.1,20.2,30.14,SW,223,4.0,4.0,85,0.00,,,0.00,Wunderground v.1.15,2013-02-04 01:55:00,
2013-02-03 20:00:00,24.1,20.2,30.14,SW,223,3.0,3.0,85,0.00,,,0.00,Wunderground v.1.15,2013-02-04 02:00:00,
2013-02-03 20:10:00,24.3,20.4,30.14,SW,217,3.0,4.0,85,0.00,,,0.00,Wunderground v.1.15,2013-02-04 02:10:00,
2013-02-03 20:15:00,24.4,20.5,30.14,SW,218,4.0,4.0,85,0.00,,,0.00,Wunderground v.1.15,2013-02-04 02:15:00,
2013-02-03 20:20:00,24.6,20.7,30.14,SW,217,4.0,4.0,85,0.00,,,0.00,Wunderground v.1.15,2013-02-04 02:20:00,
2013-02-03 20:25:00,24.7,20.8,30.14,SSW,205,4.0,4.0,85,0.00,,,0.00,Wunderground v.1.15,2013-02-04 02:25:00,
2013-02-03 20:30:00,24.8,20.9,30.14,SSW,208,4.0,5.0,85,0.00,,,0.00,Wunderground v.1.15,2013-02-04 02:30:00,
2013-02-03 20:35:00,24.8,21.2,30.14,SSW,211,5.0,5.0,86,0.00,,,0.00,Wunderground v.1.15,2013-02-04 02:35:00,
2013-02-03 20:40:00,24.9,21.3,30.14,SSW,213,6.0,6.0,86,0.00,,,0.00,Wunderground v.1.15,2013-02-04 02:40:00,
2013-02-03 20:50:00,25.0,21.4,30.15,SW,219,5.0,5.0,86,0.00,,,0.00,Wunderground v.1.15,2013-02-04 02:50:00,
2013-02-03 20:55:00,25.1,21.5,30.15,SW,224,5.0,6.0,86,0.00,,,0.00,Wunderground v.1.15,2013-02-04 02:55:00,
2013-02-03 21:00:00,25.2,21.6,30.15,SW,224,5.0,6.0,86,0.00,,,0.00,Wunderground v.1.15,2013-02-04 03:00:00,
2013-02-03 21:10:00,25.4,21.8,30.15,SW,229,5.0,5.0,86,0.00,,,0.00,Wunderground v.1.15,2013-02-04 03:10:00,
2013-02-03 21:15:00,25.4,22.1,30.16,SW,233,5.0,5.0,87,0.00,,,0.00,Wunderground v.1.15,2013-02-04 03:15:00,
2013-02-03 21:25:00,25.3,22.0,30.15,SW,232,5.0,6.0,87,0.00,,,0.00,Wunderground v.1.15,2013-02-04 03:25:00,
2013-02-03 21:30:00,25.4,22.1,30.16,SW,232,5.0,5.0,87,0.00,,,0.00,Wunderground v.1.15,2013-02-04 03:30:00,
2013-02-03 21:35:00,25.4,22.1,30.16,WSW,241,5.0,5.0,87,0.00,,,0.00,Wunderground v.1.15,2013-02-04 03:35:00,
2013-02-03 21:40:00,25.6,22.3,30.16,WSW,237,5.0,7.0,87,0.00,,,0.00,Wunderground v.1.15,2013-02-04 03:40:00,
2013-02-03 21:45:00,25.8,22.2,30.16,SW,234,6.0,8.0,86,0.00,,,0.00,Wunderground v.1.15,2013-02-04 03:45:00,
2013-02-03 21:50:00,26.0,22.1,30.16,WSW,249,7.0,7.0,85,0.00,,,0.00,Wunderground v.1.15,2013-02-04 03:50:00,
2013-02-03 21:55:00,26.2,22.0,30.16,WSW,251,8.0,8.0,84,0.00,,,0.00,Wunderground v.1.15,2013-02-04 03:55:00,
2013-02-03 22:00:00,26.4,21.9,30.16,WSW,241,7.0,7.0,83,0.00,,,0.00,Wunderground v.1.15,2013-02-04 04:00:00,
2013-02-03 22:05:00,26.3,22.1,30.16,WSW,240,7.0,7.0,84,0.00,,,0.00,Wunderground v.1.15,2013-02-04 04:05:00,
2013-02-03 22:10:00,26.3,22.1,30.16,West,259,6.0,6.0,84,0.00,,,0.00,Wunderground v.1.15,2013-02-04 04:10:00,
2013-02-03 22:15:00,26.2,22.0,30.16,West,265,6.0,7.0,84,0.00,,,0.00,Wunderground v.1.15,2013-02-04 04:15:00,
2013-02-03 22:20:00,26.2,22.0,30.16,West,260,6.0,7.0,84,0.00,,,0.00,Wunderground v.1.15,2013-02-04 04:20:00,
2013-02-03 22:25:00,26.2,22.0,30.15,West,273,6.0,7.0,84,0.00,,,0.00,Wunderground v.1.15,2013-02-04 04:25:00,
2013-02-03 22:30:00,26.2,22.0,30.15,WNW,284,5.0,5.0,84,0.00,,,0.00,Wunderground v.1.15,2013-02-04 04:30:00,
2013-02-03 22:35:00,26.3,21.8,30.15,West,276,5.0,5.0,83,0.00,,,0.00,Wunderground v.1.15,2013-02-04 04:35:00,
2013-02-03 22:40:00,26.4,21.9,30.15,West,272,5.0,6.0,83,0.00,,,0.00,Wunderground v.1.15,2013-02-04 04:40:00,
2013-02-03 22:45:00,26.4,21.9,30.15,West,267,4.0,6.0,83,0.00,,,0.00,Wunderground v.1.15,2013-02-04 04:45:00,
2013-02-03 22:50:00,26.3,22.1,30.15,West,259,3.0,3.0,84,0.00,,,0.00,Wunderground v.1.15,2013-02-04 04:50:00,
2013-02-03 22:55:00,26.2,22.3,30.14,WSW,257,3.0,12.0,85,0.00,,,0.00,Wunderground v.1.15,2013-02-04 04:55:00,
2013-02-03 23:00:00,26.1,22.5,30.14,WSW,257,2.0,2.0,86,0.00,,,0.00,Wunderground v.1.15,2013-02-04 05:00:00,
2013-02-03 23:10:00,26.0,22.4,30.14,WSW,257,1.0,1.0,86,0.00,,,0.00,Wunderground v.1.15,2013-02-04 05:10:00,
2013-02-03 23:15:00,26.0,22.7,30.14,WSW,257,1.0,2.0,87,0.00,,,0.00,Wunderground v.1.15,2013-02-04 05:15:00,
2013-02-03 23:20:00,25.9,22.6,30.13,WSW,238,2.0,2.0,87,0.00,,,0.00,Wunderground v.1.15,2013-02-04 05:20:00,
2013-02-03 23:25:00,25.8,22.5,30.13,WSW,238,2.0,2.0,87,0.00,,,0.00,Wunderground v.1.15,2013-02-04 05:25:00,